Terminal Aerodrome Forecast
Issued by NWS

Home | Current Version | Previous Version | Text Only | Print | Product List | Glossary On
Versions: 1 2 3 4 5 6 7 8 9 10 11 12 13 14 15 16 17 18 19
000
FTUS46 KMTR 222332
TAFMRY
TAF
KMRY 222332Z 2300/2324 26009KT P6SM FEW005
     FM230400 23004KT P6SM SCT005
     FM230600 VRB03KT P6SM OVC005
     FM231200 00000KT 3SM BR OVC002
     FM231500 VRB02KT P6SM BKN005
     FM231700 33003KT P6SM SKC
     FM232100 27007KT P6SM SKC=

USA.gov is the U.S. government's official web portal to all federal, state and local government web resources and services.